Powrót do katalogu

FIREFLY-2

AktywnyNaukaSSO
NORAD 62704·PAYLOAD·🇮🇳 India

Wystrzelony Jan 14, 2025 z Vandenberg Space Force Base

Loading…

Następne Przeloty (najbliższe 24 godziny)

TLE

ŚwieżeSource: Space-Track

Epoka: Sep 14, 2026, 15:01 UTC

1 62704U 25009CZ  26257.62579815  .00000961  00000-0  98475-4 0  9993
2 62704  97.6961 333.6066 0007812 131.6247 228.5643 14.92702334 90664

Śledź FIREFLY-2 w czasie rzeczywistym z AllMySat

Download on the App Store